Location: Newark
(25.7507°S, 31.4676°E)
Time: 21:00:42
(UTC+00:00)

Hubble Space Telescope - Pass Details

Date: 26 January 2020
Orbit: 536 x 540 km, 28.5° (Epoch: 26 February)

Event Time Altitude Azimuth Distance (km) Brightness Sun altitude
Rises 18:14:56 0° 278° (W) 2,686 5.1 -18.3°
Reaches altitude 10° 18:17:12 10° 276° (W) 1,796 4.2 -18.7°
Maximum altitude 18:21:22 75° 190° (S) 562 0.8 -19.5°
Enters shadow 18:22:51 38° 113° (ESE) 832 1.4 -19.8°
